Location: Newark
(0.0000°N, 0.0000°E)
Time: 13:57:22
(UTC+00:00)

OTV 5 (USA 277) - Visible Passes

Search period start: 19 June 2019 00:00
Search period end: 29 June 2019 00:00
Orbit: 310 x 325 km, 54.5° (Epoch: 08 May)

Date Brightness Start Highest point End Pass type
(mag) Time Alt. Az. Time Alt. Az. Time Alt. Az.
20 Jun ? 18:25:01 10° SSE 18:26:28 13° ESE 18:27:55 10° E visible
21 Jun ? 18:38:26 10° SSW 18:41:08 71° ESE 18:43:50 10° NE visible
22 Jun ? 18:53:45 10° WSW 18:55:48 19° WNW 18:57:49 10° N visible
25 Jun ? 05:08:43 10° NNW 05:11:18 43° ENE 05:13:52 10° SE visible
26 Jun ? 05:23:36 10° WNW 05:25:57 27° WSW 05:28:18 10° S visible
